Showing default

ICEYE-X54, 64570

Orbit data source: Space-Track

ICEYE-X54, 64570 is a payload satellite owned by ICEYE (FI) in SSO that was launched on Mon, 23 Jun 2025 UTC via an FALCON 9 launch vehicle from the Air Force Western Test Range (AFWTR). Payload-class satellites include a variety of spacecraft equipped with specific instruments for various scientific and technological missions. These include communications satellites like Starlink; space stations such as the ISS; scientific satellites like the Hubble; Earth observation satellites from companies like Planet Labs, Umbra, and HawkEye 360; GPS; miniature CubeSats for education and research; and military/defense satellites.

Loading next visibility...
Identifier
64570, 2025-135AU
Orbit
SSO
Country
Flag of FIFI / FIN
Related business
Manufacturer
ICEYE
Mission
Operational Commercial Radar Imaging
Bus & Motor
ICEYE, Unknown motor
Mass
80 kg wet, 80 kg dry
Launch date (UTC)
2025-06-23 (10 months ago)
Launch vehicle
FALCON 9
Launch site
Air Force Western Test Range (AFWTR)
Object type
Payload
Rocket body
Debris
Shape & HBR
Box + 1 Pan, 2.4 m
Radar Cross Section
0.776 m², Medium (>0.1 m² and < 1m²)

Expand to show TLE details & history
Last TLE update: 7 hours ago

TLE from 7 hours ago
0 ICEYE-X54
1 64570U 25135AU  26120.21643218  .00003426  00000-0  32445-3 0  9992
2 64570  97.7666 235.1343 0003734 107.0117 253.1513 14.94274895 46733
Epoch: 2026-04-30T05:11Z
TLE epoch observation values (Epoch: 2026-04-30T05:11:39.740Z)
Latitude
0.00004°
Longitude
-60.94751°
Altitude
588.424 km
Speed
7.566 km/s
True Right ascension
15h 40m 32s
True Declination
0° 00' 00"
Sunlit
Object was in full shadow at epoch
Visualization orbit readout
Latitude
Unknown
Longitude
Unknown
Altitude
Unknown
Speed
Unknown
Apparent Right ascension
Unknown
Apparent Declination
Unknown
Sunlit
N/A
Visualization observer readout
Local Sidereal Time
19:56:50
Azimuth
Unknown
Elevation
Unknown
Doppler factor
Unknown
Orbital elements
Apogee altitude
584.239 km
Perigee altitude
579.041 km
Semi-major axis
6,959.777 km
Eccentricity
0.00037
Inclination
97.7666°
RAAN
235.1343°
Arg. of periapsis
107.0117°
True anomaly
253.11035°
Mean anomaly
253.1513°
Eccentric anomaly
253.13083°
Mean motion
3.73809 °/min
Orbital period
96.31 mins
BSTAR
0.00032445
Loading maneuver chart data...
Computing Atmospheric mass density...
Loading historical data...
Loading historical data...
Loading historical data...
Loading historical data...
Loading historical data...
Loading historical data...
Loading historical data...

Documentation

Showing up to 5 results
|